RYR2YP LEVC-LFOB

Flight info

Callsign RYR2YP
Flight time N/A
Altitude 36000
Route SOPET N608 MATEX Z475 OSLAP DCT ARBEK/N0453F380 T113 RUTIP DCT OKABI DCT TOU DCT ADABI/N0441F280 DCT BOKNO UN858 VANAD/N0428F260 UN859 BENAR/N0381F180 A34 LGL Z295 PEXIR
Aircraft B738/M-SDE2E3FGHIRWXY/LB1

Departure

Time 2026-04-27 16:45
Airport Valencia Airport (LEVC)

Arrival

Time N/A
Airport Beauvais-Tillé airport (LFOB)
Time Latitude Longitude Altitude Speed Heading
2026-04-27 16:29 39.48995 -0.47644 202 ft 0 kts 206°
2026-04-27 16:35 39.48995 -0.47654 214 ft 1 kts 284°
2026-04-27 16:36 39.49004 -0.47655 212 ft 2 kts
2026-04-27 16:36 39.49013 -0.47647 208 ft 2 kts 34°
2026-04-27 16:36 39.49037 -0.47631 204 ft 5 kts 12°
2026-04-27 16:36 39.49061 -0.47670 202 ft 7 kts 275°
2026-04-27 16:37 39.49052 -0.47739 205 ft 9 kts 252°
2026-04-27 16:37 39.49033 -0.47823 216 ft 12 kts 257°
2026-04-27 16:37 39.49049 -0.47944 216 ft 16 kts 295°
2026-04-27 16:37 39.49107 -0.48100 216 ft 22 kts 295°
2026-04-27 16:38 39.49175 -0.48284 214 ft 24 kts 295°
2026-04-27 16:38 39.49249 -0.48474 220 ft 26 kts 299°
2026-04-27 16:38 39.49259 -0.48496 220 ft 25 kts 299°
2026-04-27 16:38 39.49321 -0.48673 222 ft 24 kts 295°
2026-04-27 16:39 39.49405 -0.48867 225 ft 27 kts 300°
2026-04-27 16:39 39.49504 -0.49089 228 ft 31 kts 300°
2026-04-27 16:39 39.49592 -0.49349 232 ft 32 kts 294°
2026-04-27 16:39 39.49685 -0.49603 240 ft 30 kts 296°
2026-04-27 16:40 39.49725 -0.49712 242 ft 0 kts 296°
2026-04-27 16:43 39.49751 -0.49780 244 ft 19 kts 296°
2026-04-27 16:43 39.49799 -0.49908 249 ft 9 kts 296°
2026-04-27 16:43 39.49797 -0.49951 250 ft 4 kts 232°
2026-04-27 16:43 39.49774 -0.49975 251 ft 6 kts 212°
2026-04-27 16:44 39.49674 -0.50023 253 ft 21 kts 181°
2026-04-27 16:44 39.49648 -0.49871 246 ft 24 kts 34°
2026-04-27 16:44 39.49759 -0.49970 251 ft 23 kts 263°
2026-04-27 16:44 39.49636 -0.50007 251 ft 15 kts 129°
2026-04-27 16:45 39.49485 -0.49610 242 ft 97 kts 116°
2026-04-27 16:45 39.49075 -0.48463 273 ft 176 kts 114°
2026-04-27 16:45 39.48675 -0.47448 749 ft 191 kts 116°
2026-04-27 16:45 39.48033 -0.45876 1817 ft 199 kts 116°
2026-04-27 16:46 39.47376 -0.44224 2844 ft 206 kts 117°
2026-04-27 16:46 39.46329 -0.42949 3708 ft 219 kts 156°
2026-04-27 16:46 39.44881 -0.42433 4630 ft 221 kts 152°
2026-04-27 16:46 39.43848 -0.41028 5440 ft 220 kts 112°
2026-04-27 16:47 39.43280 -0.39155 6241 ft 228 kts 112°
2026-04-27 16:47 39.42563 -0.37311 7098 ft 233 kts 118°
2026-04-27 16:47 39.41728 -0.35491 7985 ft 236 kts 120°
2026-04-27 16:47 39.40840 -0.33686 8855 ft 239 kts 121°
2026-04-27 16:48 39.39951 -0.31863 9581 ft 248 kts 115°
2026-04-27 16:48 39.39651 -0.29597 9912 ft 268 kts 82°
2026-04-27 16:48 39.40429 -0.27383 10537 ft 279 kts 49°
2026-04-27 16:49 39.44137 -0.25159 11475 ft 327 kts 10°
2026-04-27 16:49 39.46401 -0.24794 12309 ft 336 kts
2026-04-27 16:49 39.48744 -0.24438 13313 ft 339 kts
2026-04-27 16:49 39.51127 -0.24039 14051 ft 352 kts
2026-04-27 16:50 39.53629 -0.23577 14275 ft 375 kts 10°
2026-04-27 16:50 39.56252 -0.23062 14889 ft 385 kts 11°
2026-04-27 16:50 39.58889 -0.22529 15670 ft 388 kts 11°
2026-04-27 16:50 39.61569 -0.21981 16462 ft 392 kts 11°
2026-04-27 16:51 39.64295 -0.21422 17188 ft 397 kts 11°
2026-04-27 16:51 39.66945 -0.20521 17832 ft 400 kts 25°
2026-04-27 16:51 39.69295 -0.18583 18494 ft 400 kts 43°
2026-04-27 16:51 39.71313 -0.16065 19130 ft 402 kts 46°
2026-04-27 16:52 39.73272 -0.13502 19713 ft 406 kts 46°
2026-04-27 16:52 39.75282 -0.10870 20288 ft 409 kts 46°
2026-04-27 16:52 39.77292 -0.08274 20834 ft 412 kts 45°
2026-04-27 16:52 39.79357 -0.05639 21366 ft 416 kts 45°
2026-04-27 16:53 39.81447 -0.02982 21890 ft 419 kts 45°
2026-04-27 16:53 39.83718 -0.00623 22358 ft 424 kts 31°
2026-04-27 16:53 39.86470 0.00818 22886 ft 428 kts 17°
2026-04-27 16:53 39.89317 0.01858 23391 ft 430 kts 16°
2026-04-27 16:54 39.92228 0.02883 23803 ft 434 kts 16°
2026-04-27 16:54 39.95166 0.03921 24172 ft 436 kts 16°
2026-04-27 16:54 39.98071 0.04967 24561 ft 438 kts 17°
2026-04-27 16:54 40.01016 0.06045 24947 ft 439 kts 17°
2026-04-27 16:55 40.03965 0.07138 25322 ft 441 kts 17°
2026-04-27 16:55 40.06942 0.08249 25671 ft 443 kts 17°
2026-04-27 16:55 40.09896 0.09354 25997 ft 446 kts 17°
2026-04-27 16:55 40.12857 0.10462 26394 ft 446 kts 17°
2026-04-27 16:56 40.15841 0.11579 26948 ft 442 kts 17°
2026-04-27 16:56 40.18802 0.12688 27472 ft 439 kts 17°
2026-04-27 16:56 40.21713 0.13778 27933 ft 438 kts 17°
2026-04-27 16:56 40.24661 0.14882 28407 ft 436 kts 16°
2026-04-27 16:57 40.27552 0.15961 28816 ft 436 kts 16°
2026-04-27 16:57 40.30481 0.17053 29228 ft 436 kts 16°
2026-04-27 16:57 40.33412 0.18145 29600 ft 436 kts 16°
2026-04-27 16:57 40.36306 0.19226 30001 ft 435 kts 16°
2026-04-27 16:58 40.39224 0.20317 30382 ft 434 kts 16°
2026-04-27 16:58 40.42117 0.21400 30705 ft 434 kts 15°
2026-04-27 16:58 40.45033 0.22493 31038 ft 433 kts 15°
2026-04-27 16:58 40.47905 0.23570 31362 ft 433 kts 15°
2026-04-27 16:59 40.50819 0.24664 31682 ft 432 kts 15°
2026-04-27 16:59 40.53690 0.25743 31991 ft 432 kts 15°
2026-04-27 16:59 40.56552 0.27013 32283 ft 432 kts 23°
2026-04-27 16:59 40.59272 0.28775 32497 ft 435 kts 27°
2026-04-27 17:00 40.67414 0.34535 32656 ft 451 kts 27°
2026-04-27 17:01 40.72993 0.38457 32761 ft 460 kts 27°
2026-04-27 17:01 40.78689 0.42422 32853 ft 467 kts 27°
2026-04-27 17:02 40.84450 0.46428 33063 ft 470 kts 26°
2026-04-27 17:02 40.87372 0.48464 33238 ft 469 kts 26°
2026-04-27 17:02 40.90234 0.50461 33422 ft 469 kts 26°
2026-04-27 17:02 40.93131 0.52484 33598 ft 469 kts 26°
2026-04-27 17:03 40.96019 0.54503 33762 ft 469 kts 26°
2026-04-27 17:03 40.98882 0.56505 33935 ft 468 kts 26°
2026-04-27 17:03 41.01784 0.58539 34087 ft 468 kts 26°
2026-04-27 17:03 41.04649 0.60548 34232 ft 468 kts 26°
2026-04-27 17:04 41.07532 0.62573 34381 ft 468 kts 26°
2026-04-27 17:04 41.10381 0.64575 34517 ft 468 kts 26°
2026-04-27 17:04 41.13238 0.66671 34653 ft 468 kts 31°
2026-04-27 17:04 41.15884 0.69242 34797 ft 469 kts 38°
2026-04-27 17:05 41.18362 0.72027 34972 ft 469 kts 39°
2026-04-27 17:05 41.20837 0.74878 35133 ft 468 kts 40°
2026-04-27 17:05 41.23305 0.77728 35258 ft 468 kts 39°
2026-04-27 17:06 41.28230 0.83352 35524 ft 468 kts 39°
2026-04-27 17:06 41.30717 0.86164 35697 ft 467 kts 39°
2026-04-27 17:06 41.33182 0.88945 35827 ft 467 kts 39°
2026-04-27 17:06 41.35671 0.91752 35953 ft 467 kts 39°
2026-04-27 17:07 41.38123 0.94522 36056 ft 467 kts 39°
2026-04-27 17:07 41.43120 1.00178 36076 ft 471 kts 39°
2026-04-27 17:08 41.48111 1.05843 36074 ft 475 kts 39°
2026-04-27 17:08 41.53320 1.11332 36060 ft 475 kts 30°
2026-04-27 17:09 41.59324 1.14794 36067 ft 472 kts 13°
2026-04-27 17:09 41.65735 1.16828 36063 ft 473 kts 11°
2026-04-27 17:10 41.72123 1.18801 36055 ft 473 kts 12°
2026-04-27 17:10 41.78504 1.20848 36042 ft 473 kts 12°
2026-04-27 17:11 41.84923 1.22951 36031 ft 473 kts 12°
2026-04-27 17:11 41.94523 1.26108 36023 ft 473 kts 12°
2026-04-27 17:12 42.04127 1.29270 36019 ft 473 kts 12°
2026-04-27 17:13 42.10498 1.31373 36040 ft 473 kts 12°
2026-04-27 17:13 42.16873 1.33478 36126 ft 473 kts 12°
2026-04-27 17:14 42.23296 1.35591 36131 ft 473 kts 12°
2026-04-27 17:14 42.29670 1.37692 36131 ft 473 kts 12°
2026-04-27 17:15 42.36064 1.39806 36129 ft 473 kts 12°
2026-04-27 17:15 42.42466 1.41928 36130 ft 472 kts 12°
2026-04-27 17:16 42.48839 1.44046 36132 ft 472 kts 13°
2026-04-27 17:16 42.55245 1.46228 36133 ft 472 kts 13°
2026-04-27 17:17 42.61649 1.47994 36140 ft 470 kts
2026-04-27 17:17 42.68131 1.47548 36158 ft 467 kts 352°
2026-04-27 17:18 42.77846 1.45834 36129 ft 469 kts 351°
2026-04-27 17:18 42.84303 1.44743 36124 ft 468 kts 352°
2026-04-27 17:19 42.90760 1.43692 36120 ft 469 kts 352°
2026-04-27 17:19 42.97229 1.42646 36112 ft 468 kts 352°
2026-04-27 17:20 43.03726 1.41593 36105 ft 470 kts 351°
2026-04-27 17:20 43.10230 1.40533 36108 ft 473 kts 351°
2026-04-27 17:21 43.16750 1.39467 36097 ft 475 kts 351°
2026-04-27 17:21 43.23341 1.38388 36095 ft 476 kts 351°
2026-04-27 17:22 43.29926 1.37308 36080 ft 477 kts 351°
2026-04-27 17:22 43.36490 1.36230 36078 ft 477 kts 351°
2026-04-27 17:23 43.43077 1.35145 36071 ft 478 kts 351°
2026-04-27 17:23 43.49346 1.34110 36080 ft 477 kts 350°
2026-04-27 17:24 43.54824 1.33203 36073 ft 478 kts 350°
2026-04-27 17:24 43.61444 1.32106 36078 ft 477 kts 350°
2026-04-27 17:25 43.68034 1.31007 36075 ft 477 kts 349°
2026-04-27 17:25 43.74553 1.29510 36078 ft 476 kts 346°
2026-04-27 17:26 43.81087 1.27744 36072 ft 475 kts 346°
2026-04-27 17:26 43.87575 1.25998 36068 ft 475 kts 346°
2026-04-27 17:27 43.94097 1.24285 36067 ft 475 kts 346°
2026-04-27 17:27 44.00573 1.22604 36062 ft 475 kts 346°
2026-04-27 17:28 44.07097 1.20910 36065 ft 475 kts 346°
2026-04-27 17:29 44.16856 1.18365 36062 ft 476 kts 345°
2026-04-27 17:29 44.23358 1.16664 36066 ft 476 kts 345°
2026-04-27 17:30 44.29873 1.14955 36067 ft 476 kts 345°
2026-04-27 17:30 44.39641 1.12387 36066 ft 476 kts 345°
2026-04-27 17:31 44.46161 1.10667 36064 ft 476 kts 345°
2026-04-27 17:31 44.52676 1.08945 36074 ft 477 kts 345°
2026-04-27 17:32 44.62474 1.06347 36064 ft 477 kts 345°
2026-04-27 17:33 44.68980 1.04618 36061 ft 477 kts 345°